This is the latest recevied weather packets stored in our database for station/object N8WEL. If no packets are shown the sender has not sent any weather packets the latest 10 day(s).
| Time | Temp. | Humidity | Pressure | Rain* | Wind** | Luminosity | Snow |
|---|---|---|---|---|---|---|---|
| 1777750699 | 10° C | 43% | 1015.7 hPa | 0 mm | - | - | - |
| 1777750399 | 10° C | 47% | 1015.8 hPa | 0 mm | - | - | - |
| 1777750099 | 9.44° C | 44% | 1015.8 hPa | 0 mm | - | - | - |
| 1777749799 | 9.44° C | 44% | 1015.9 hPa | 0 mm | - | - | - |
| 1777749200 | 9.44° C | 43% | 1015.9 hPa | 0 mm | - | - | - |
| 1777748611 | 10° C | 41% | 1015.8 hPa | 0 mm | - | - | - |
| 1777748326 | 9.44° C | 45% | 1015.9 hPa | 0 mm | - | - | - |
| 1777748000 | 9.44° C | 44% | 1016.1 hPa | 0 mm | - | - | - |
| 1777747730 | 9.44° C | 41% | 1016.1 hPa | 0 mm | - | - | - |
| 1777747330 | 9.44° C | 43% | 1016 hPa | 0 mm | - | - | - |
| 1777746740 | 8.89° C | 44% | 1016 hPa | 0 mm | - | - | - |
| 1777746250 | 9.44° C | 45% | 1016.1 hPa | 0 mm | - | - | - |
| 1777745792 | 9.44° C | 43% | 1016.1 hPa | 0 mm | - | - | - |
| 1777745577 | 10° C | 41% | 1016.2 hPa | 0 mm | - | - | - |
| 1777745192 | 10° C | 43% | 1016.1 hPa | 0 mm | - | - | - |
| 1777744891 | 9.44° C | 42% | 1016.1 hPa | 0 mm | - | - | - |
| 1777744220 | 9.44° C | 45% | 1016.3 hPa | 0 mm | - | - | - |
| 1777743916 | 9.44° C | 44% | 1016.3 hPa | 0 mm | - | - | - |
| 1777743616 | 8.89° C | 42% | 1016.2 hPa | 0 mm | - | - | - |
| 1777743316 | 8.89° C | 43% | 1016.3 hPa | 0 mm | - | - | - |
| 1777743016 | 8.89° C | 44% | 1016.3 hPa | 0 mm | - | - | - |
| 1777742755 | 9.44° C | 44% | 1016.3 hPa | 0 mm | - | - | - |
| 1777742431 | 8.89° C | 43% | 1016.4 hPa | 0 mm | - | - | - |
| 1777742334 | 8.89° C | 44% | 1016.5 hPa | 0 mm | - | - | - |
| 1777741870 | 8.89° C | 44% | 1016.4 hPa | 0 mm | - | - | - |
* Rain latest hour (hover to see other rain measurements)
** Current wind speed in m/s (hover to see current wind gust speed)